www.pogodaiklimat.ru

Погода и климат >> Архив погоды >> Мексика >> Оризаба


ПОГОДА в Оризабе

  • Прогноз погоды в Оризабе
  • Монитор погоды в Оризабе

АРХИВ ПОГОДЫ в Оризабе

Время (UTC), дата Ветер
(напр.,м/с)
 
Видим.   Явления Облачность Т
(С)
Тd
(С)
f
(%)
Тe
(С)
Тes
(С)
Комфортность P
(гПа)
Po
(гПа)
Тmin
(С)
Tmax
(С)
R
(мм)
R24
(мм)
S
(см)
21 12.05 ЮВ 2
{6}
28 км 9/9 600 м
[St]
+27.4 +21.0 68 +34 +36 очень
душно
1005.8 872.9
00 13.05 ЮВ 2
{5}
28 км 10/8 600 м
[St As op]
+24.2 +21.2 83 +31 +31 очень
душно
1005.9 872.8 +18.1 +28.6
03 13.05 штиль 0 20 км 10/10 400 м
[St]
+22.5 +21.0 91 +29 +29 очень
душно
1008.1 874.9
06 13.05 штиль 0 25 км мгла ясно +21.5 +19.8 90 +27 +27 душно 1009.0 875.3 +18.1 +28.6
09 13.05 штиль 0 25 км мгла ясно +19.1 +16.9 87 +21 +21 комфорт 1008.4 874.3
12 13.05 штиль 0 28 км 6/0 2000 м
[Ac und]
+19.3 +16.2 82 +21 +21 комфорт 1010.3 874.9 +18.6 +28.6
15 13.05 ЮЗ 1
{2}
25 км мгла ясно +24.4 +18.1 68 +29 +40 душно 1011.5 875.9
18 13.05 Ю 1
{2}
20 км мгла 5/5 700 м
[Cu hum]
+28.0 +19.4 60 +34 +47 очень
душно
1009.9 874.9 +18.6 +28.4
21 13.05 Ю 3
{7}
20 км 8/8 700 м
[Sc diur, vesp]
+28.1 +20.9 65 +35 +38 очень
душно
1006.9 873.3
00 14.05 ЮВ 2 20 км 9/9 600 м
[St]
+25.0 +20.0 74 +31 +31 очень
душно
1005.9 873.2 +18.6 +28.8
03 14.05 Ю 1
{5}
20 км мгла 3/0 2000 м
[Ac trans]
+23.1 +19.7 81 +30 +30 очень
душно
1007.7 875.0
06 14.05 Ю 1
{5}
20 км мгла 6/0 2000 м
[Ac und]
+20.5 +17.9 85 +25 +25 комфорт 1009.5 875.9 +18.6 +28.8
09 14.05 ЮЗ 1 20 км мгла 5/0
[Ac und]
+19.0 +16.0 83 +21 +21 комфорт 1008.8 874.3
12 14.05 З 1
{2}
20 км мгла 9/0 2000 м
[As op]
+18.4 +15.1 81 +20 +20 1010.9 875.4 +18.2 +28.8
15 14.05 ЮВ 1
{2}
25 км мгла 5/0 2000 м
[Ac und]
+24.2 +18.1 69 +29 +36 душно 1012.8 876.8
18 14.05 В 2
{5}
25 км мгла 6/3 700 м
[Cu hum Ac trans]
+27.2 +20.2 66 +34 +45 очень
душно
1012.1 876.6 +18.2 +27.6
21 14.05 ЮВ 2
{5}
25 км 9/8 600 м
[St Ac trans]
+27.0 +20.5 68 +34 +36 очень
душно
1008.0 874.1
00 15.05 ЮВ 1
{4}
25 км 10/6 600 м
[St As op]
+25.8 +19.2 67 +31 +31 очень
душно
1007.1 874.1 +18.2 +28.4
03 15.05 В 1
{5}
20 км мгла 10/5 400 м
[St As trans]
+23.3 +20.8 86 +31 +31 очень
душно
1009.2 876.1
06 15.05 В 1 20 км мгла 10/10 500 м
[]
+22.2 +19.8 86 +28 +28 душно 1010.6 876.9 +28.4
09 15.05 штиль 0 20 км мгла 10/10 400 м
[]
+21.4 +19.7 90 +26 +26 душно 1010.0 875.8
12 15.05 штиль 0
{1}
15 км мгла 10/10 300 м
[St]
+20.7 +19.6 93 +25 +25 комфорт 1010.7 875.9 +20.7 +28.4
15 15.05 штиль 0
{1}
20 км мгла 5/5 400 м
[St]
+22.8 +19.4 81 +29 +36 очень
душно
1012.7 877.3
18 15.05 В 2
{4}
20 км мгла 9/9 500 м
[St]
+26.2 +20.7 72 +33 +35 очень
душно
1012.6 877.4 +20.6 +26.9
21 15.05 Ю 3
{7}
20 км гроза без осадков 9/8 600 м
[Cb cap As op]
+26.2 +20.4 70 +32 +34 очень
душно
1009.5 875.5
00 16.05 штиль 0
{3}
20 км слаб. дождь {гроза} 10/10 500 м
[St]
+21.8 +20.1 90 +27 +27 душно 1010.2 876.2 +20.6 +27.5 17
03 16.05 В 2
{4}
25 км {гроза} 8/8 400 м
[St]
+20.7 +18.9 89 +26 +26 душно 1012.6 878.2
06 16.05 В 1 25 км {гроза} 4/1 400 м
[St Ac trans]
+20.3 +19.6 96 +25 +25 комфорт 1013.5 878.4 +27.5
09 16.05 штиль 0
{2}
25 км мгла 5/3 500 м
[St Ac trans]
+19.3 +17.4 89 +21 +21 комфорт 1012.5 876.8
15 16.05 ЮВ 1
{3}
20 км мгла 9/4 500 м
[St Ac und]
+22.0 +18.0 78 +27 +30 душно 1014.9 878.6
18 16.05 В 2
{3}
20 км мгла 6/3 700 м
[Cu med, cong Ac trans]
+26.5 +19.7 66 +32 +44 очень
душно
1014.8 878.7 +19.2 +26.5
21 16.05 В 3
{8}
20 км гроза без осадков 10/6 500 м
[St As op]
+25.4 +20.0 72 +31 +32 очень
душно
1011.4 876.7
00 17.05 СВ 2
{8}
28 км в посл. час гроза 10/3 500 м
[Frnb Ac As]
+21.0 +17.5 80 +26 +26 душно 1010.3 876.0 +18.9 +28.0 2
03 17.05 З 2
{4}
20 км мгла 6/0 2000 м
[Ac und]
+20.4 +17.5 83 +24 +24 комфорт 1010.5 876.2
06 17.05 Ю 1 25 км мгла 6/0
[Ac und]
+19.5 +15.8 79 +23 +23 комфорт 1012.0 877.1 +28.0
09 17.05 З 2 25 км мгла 3/0
[Ac trans]
+17.0 +13.7 81 +17 +17 1012.0 876.1
12 17.05 З 1
{3}
25 км мгла 3/0 2000 м
[Ac trans]
+15.9 +13.4 85 +17 +17 1012.5 876.0 +15.9 +28.0
15 17.05 Ю 1
{3}
28 км мгла 1/0 2000 м
[Ac trans]
+24.0 +15.4 59 +27 +38 жарко 1012.5 875.9
18 17.05 ЮВ 2
{3}
28 км гроза без осадков 4/3 700 м
[Cb calv Ac trans]
+27.5 +17.7 55 +32 +46 очень
душно
1011.3 875.3 +15.9 +27.6
21 17.05 Ю 3
{7}
28 км {гроза} 8/3 700 м
[Cu med, cong Cs]
+27.2 +19.9 64 +33 +40 очень
душно
1007.8 873.7
00 18.05 СВ 3
{7}
28 км слаб. морось {гроза} 9/3 500 м
[Frnb Ac As]
+24.8 +18.3 67 +29 +30 душно 1005.9 873.0 +15.9 +28.5 0.0
03 18.05 штиль 0 30 км 9/0 2000 м
[Ac As]
+22.8 +15.0 61 +27 +27 душно 1007.6 874.7
06 18.05 штиль 0 25 км мгла ясно +20.5 +15.3 72 +23 +23 комфорт 1009.0 875.3 +15.9 +28.5
09 18.05 ЮЗ 4 30 км 9/0 2000 м
[]
+24.2 +12.7 49 +26 +26 жарко 1006.0 872.2
12 18.05 ЮЗ 3
{6}
30 км 4/0 2000 м
[Ac trans]
+24.1 +11.6 45 +26 +26 жарко 1005.9 871.9 +20.5 +28.5
15 18.05 ЮЗ 4
{11}
30 км 3/0
[Ci fib]
+27.6 +14.0 43 +30 +36 жарко 1007.7 873.8
18 18.05 Ю 2
{11}
28 км мгла 4/3 600 м
[Cu med, cong Ac trans]
+30.4 +17.2 45 +34 +48 очень
душно
1007.0 873.9 +20.4 +30.9
21 18.05 ЮВ 2
{4}
30 км 8/1 700 м
[Cb calv As op]
+29.6 +17.7 49 +34 +39 очень
душно
1003.5 871.9
00 19.05 СЗ 1
{4}
30 км {гроза} 10/4 700 м
[St As op]
+26.2 +17.2 58 +30 +30 душно 1003.3 872.1 +20.4 +32.5
03 19.05 штиль 0 30 км мгла ясно +22.6 +16.4 68 +27 +27 душно 1005.4 873.7
06 19.05 штиль 0 28 км мгла 9/0 2000 м
[Ac und]
+22.8 +12.4 52 +26 +26 жарко 1006.2 873.6 +20.4 +32.5
09 19.05 ЮЗ 3 30 км ясно +24.5 +11.2 43 +26 +26 жарко 1007.9 872.2
12 19.05 ЮЗ 6
{8}
30 км ясно +23.7 +12.4 49 +26 +26 жарко 1008.1 872.2 +21.8 +32.5
15 19.05 ЮЗ 3
{9}
30 км ясно +28.4 +13.9 41 +30 +38 жарко 1007.2 873.5
18 19.05 В 3
{9}
30 км ясно +30.6 +16.4 42 +34 +52 опасность
солнечного
удара
1007.1 874.2 +21.8 +30.7

 

Местоположение метеостанции Оризаба (Мексика): широта 18.85 долгота -97.10 высота над уровнем моря 1259 м.

В архиве по умолчанию представлена погода в Оризабе за последнюю неделю. Архивные данные за месяц целиком и за предыдущие месяцы, начиная с января 2011 года, Вы можете получить, выбрав интересующий диапазон дат из раскрывающегося списка и нажав кнопку "Ввод!".


*Определитесь, кто Вы:
робот инопланетянин человек

Внимание! Время в таблицах - всемирное. Для получения местного времени необходимо прибавить поправку, которая равна -6 ч.

Смотрите также архив погоды в соседних городах и на ближайших метеорологических станциях:

Погода в Кордове (Мексика) (19 км)
Погода в Халапе (Мексика) (80 км)
Погода в Веракрусе (Мексика) (109 км)
Погода в Пуэбле (Мексика) (114 км)
Погода в Тлашкала аэропорту (Мексика) (130 км)
Погода в Тлашкале (Мексика) (132 км)
Погода в Уахуапан-де-Леоне (Мексика) (137 км)
Погода в Тулансинго (Мексика) (191 км)
Погода в Оахаке (Мексика) (204 км)
Погода в Сакатепеке (Мексика) (219 км)

Пояснения к столбцам:

Ветер - указаны скорость ветра в м/с - средняя за 10 мин, порывы в срок и между сроками (в фигурных скобках) и направление, откуда дует ветер: С - северный, СВ - северо-восточный, В - восточный, ЮВ - юго-восточный, Ю - южный, ЮЗ - юго-западный, З - западный, СЗ - северо-западный.
Видимость - горизонтальная дальность видимости в метрах или километрах. При видимости от 1 до 10 км при отсутствии осадков обычно наблюдается дымка, при ухудшении видимости до 1 км и менее - туман. В сухую погоду видимость может ухудшаться дымом, пылью или мглою.
Явления - указаны атмосферные явления, наблюдавшиеся в срок или в последний час перед сроком; фигурными скобками обозначены явления, наблюдавшиеся между сроками (за 1-3 часа до срока); квадратными скобками обозначены град или гололедные отложения с указанием их диаметра в мм.
Облачность - указаны через наклонную черту общая и нижняя облачность в баллах и высота нижней границы облаков в метрах; квадратными скобками обозначены формы облаков: Ci - перистые, Cs - перисто-слоистые, Cc - перисто-кучевые, Ac - высококучевые, As - высокослоистые, Sc - слоисто-кучевые, Ns - слоисто-дождевые, Cu - кучевые, Cb - кучево-дождевые. Подробнее классификацию облаков см. в Атласе облаков (PDF).
T - Температура воздуха - температура, измеренная на высоте 2 м над землей.
Td - Температура точки росы - температура, при понижении до которой содержащийся в воздухе водяной пар достигнет насыщения.
f - Относительная влажность воздуха - влажноcть воздуха, измеренная на высоте 2 м над землей.
Te - Эффективная температура - температура, которую ощущает одетый по сезону человек в тени. Характеристика душности погоды. При расчете учитывается влияние влажности воздуха и скорости ветра на теплоощущения человека.
Tes - Эффективная температура на солнце - температура, которую ощущает человек, с поправкой на солнечный нагрев. Характеристика знойности погоды. Зависит от высоты солнца над горизонтом, облачности и скорости ветра. Ночью, в пасмурную погоду, а также при ветре 12 м/с и более поправка равна нулю.
P - Атмосферное давление - приведенное к уровню моря атмосферное давление.
Po - Атмосферное давление - измеренное на уровне метеостанции атмосферное давление.
Tmin - Минимальная температура - минимум температуры воздуха на высоте 2 м над землей.
Tmax - Максимальная температура - максимум температуры воздуха на высоте 2 м над землей.
R - Количество осадков - Количество выпавших осадков за период времени, мм. При наведении курсора мыши на число - период времени, за который выпало указанное количество осадков.
R24 - Количество осадков - Количество выпавших осадков за 24 часа, мм.
S - Снежный покров - Высота снежного покрова, см. При наведении курсора мыши на число - состояние снежного покрова и степень покрытия местности в баллах.